Theta_e
349 350 350 348 349 352 351 352 350 351 351 345 346 349 350 347 345 338 352 352 347 346 343 344 343 343 345 345 342 343 343 343 341 342 341 341 340 340
347 348 347 349 350 350 351 352 350 350 350 348 347 350 351 348 344 340 350 350 346 341 342 343 340 344 343 344 344 343 341 341 340 341 341 340 340 340
345 347 348 349 350 349 348 348 352 351 350 347 347 348 352 347 347 348 348 347 349 346 342 339 342 343 344 343 340 338 338 340 341 341 342 342 340 339
339 342 345 346 348 349 350 348 348 347 348 347 346 347 347 345 345 345 343 347 349 348 351 348 345 344 343 344 344 342 340 337 340 343 344 342 342 342
340 341 343 346 347 346 346 347 348 348 349 350 348 346 345 344 342 345 344 344 347 348 349 350 346 346 348 345 343 344 343 341 340 341 343 344 343 342
330 327 334 341 342 345 345 345 346 347 347 348 347 347 349 349 344 347 347 349 350 349 351 349 349 346 346 344 342 342 344 343 342 342 343 343 343 342
323 322 323 336 339 340 341 339 340 344 346 347 347 346 346 346 346 345 346 347 348 349 346 347 336 350 349 348 344 341 343 344 343 342 342 342 343 343
331 330 328 335 334 337 339 345 345 344 343 343 343 345 344 344 344 345 346 347 347 346 347 347 346 347 343 334 336 347 342 341 343 343 342 341 342 343
332 332 333 333 334 336 336 340 340 341 342 341 341 341 340 340 343 343 346 346 345 345 344 343 345 346 345 335 335 344 349 347 347 344 344 344 343 343
333 334 334 334 334 337 337 334 337 338 339 341 341 342 339 339 340 340 340 340 340 341 340 340 341 343 346 346 346 347 349 348 347 347 347 346 345 344
330 333 333 334 334 333 334 332 330 331 338 338 340 339 339 336 333 332 331 331 335 338 340 344 345 345 345 345 348 348 348 347 347 347 348 348 347 346
329 332 333 333 332 333 332 331 331 332 332 334 337 336 333 335 337 338 338 340 341 341 342 343 342 342 341 342 346 346 346 347 345 346 344 343 342 345
327 329 330 331 330 331 332 332 332 332 331 331 334 336 336 336 338 338 337 339 337 336 333 334 330 335 338 338 339 345 347 347 344 342 342 343 341 343
324 326 328 329 330 330 331 331 330 330 333 335 335 334 335 335 335 335 333 332 333 332 332 334 334 334 334 336 335 333 333 335 339 341 343 341 341 341
323 324 327 328 329 329 330 330 329 330 330 331 330 329 329 329 329 329 330 330 331 332 331 331 331 332 334 335 335 335 334 333 335 338 340 341 342 340
321 324 324 327 328 327 327 326 327 327 327 326 326 326 326 328 328 328 329 329 329 329 329 330 330 330 330 331 332 334 334 333 332 333 334 336 340 343
321 322 323 322 323 323 323 322 321 321 322 321 321 323 324 324 325 324 324 325 325 325 325 326 328 328 329 329 329 329 331 331 331 334 337 338 339 340
318 319 319 319 320 318 317 317 317 316 314 315 316 315 314 314 314 315 315 316 316 317 318 319 319 321 323 324 325 329 330 331 332 334 336 337 340 338
315 314 314 314 315 314 313 313 313 313 312 313 313 313 312 312 312 312 312 312 312 313 313 313 313 314 316 319 319 321 323 326 329 330 330 327 330 334
313 313 313 313 313 313 313 313 312 312 310 310 311 311 311 310 311 311 310 310 310 310 310 312 313 314 313 312 312 313 314 317 321 324 326 329 331 332
313 313 313 313 313 313 312 312 312 312 312 311 311 311 310 310 309 309 309 308 308 308 309 310 310 310 310 310 310 310 310 310 316 318 320 326 328 328
313 313 312 312 312 312 312 312 312 311 311 311 311 310 309 308 307 307 307 307 306 305 306 307 308 308 308 308 307 307 308 308 308 309 319 321 324 326
312 312 312 311 311 311 311 311 311 311 311 310 310 309 308 306 307 307 307 306 306 305 306 306 307 308 308 307 307 307 308 309 308 310 312 320 324 327
Wind_Speed
21 20 19 22 23 23 21 21 22 23 24 19 20 20 15 13 25 8 10 20 17 17 16 16 18 22 22 23 23 21 22 21 21 21 21 20 21 20
17 18 19 22 20 20 21 23 22 23 27 24 19 18 18 14 12 15 14 17 22 27 22 20 18 20 20 22 24 24 23 24 22 21 22 22 22 21
16 17 18 18 20 22 24 24 25 24 25 28 23 18 20 21 14 14 16 19 26 24 22 26 22 20 21 20 22 24 23 25 24 23 23 23 23 23
18 18 17 18 19 20 21 23 24 27 28 31 28 24 24 21 21 20 20 22 23 24 24 23 22 23 24 23 24 24 25 26 27 27 26 25 25 25
17 18 15 15 18 18 20 21 22 23 24 26 30 29 28 27 19 20 20 24 23 17 23 29 23 22 23 27 25 26 25 25 27 28 27 27 28 27
21 20 20 19 19 20 20 19 20 20 21 25 26 26 23 24 20 20 24 26 25 22 19 20 20 25 27 28 29 30 30 28 28 29 29 28 29 29
16 15 15 13 19 20 20 22 21 21 20 21 23 24 26 22 19 20 26 28 28 26 24 21 22 24 19 17 30 31 31 31 30 29 29 30 29 29
16 16 15 14 10 18 20 18 18 20 22 23 26 24 24 24 23 21 23 23 26 21 16 23 20 27 23 28 33 29 35 33 32 30 29 29 30 29
15 17 17 14 18 20 21 18 18 19 21 22 24 26 26 22 22 22 22 22 24 24 20 24 21 25 23 10 16 20 22 20 21 27 31 33 32 32
15 15 14 15 16 18 19 21 19 17 15 16 17 17 15 15 16 16 18 22 24 25 22 25 21 23 20 20 20 19 20 22 25 24 26 26 31 35
9 13 15 14 16 18 19 16 16 15 14 16 16 11 13 12 12 14 15 15 16 16 12 15 18 22 23 23 19 21 26 25 26 25 23 26 30 31
9 10 17 14 13 13 12 11 12 13 13 11 8 9 9 10 12 13 11 12 15 16 8 9 15 17 21 21 17 21 17 21 25 24 22 20 20 26
13 12 13 15 13 10 10 11 10 10 7 7 7 13 3 9 2 3 8 12 14 14 20 23 22 22 21 25 23 18 17 20 23 20 23 27 24 24
15 17 15 13 12 10 11 10 9 8 7 8 10 11 11 7 7 9 12 14 13 13 15 16 17 16 20 22 26 26 24 26 25 30 32 30 26 26
13 15 13 13 13 8 12 14 12 10 9 8 12 14 15 17 18 17 15 15 14 13 15 17 20 19 19 22 26 26 25 25 25 24 25 28 31 29
9 7 12 8 8 12 13 15 13 10 8 10 10 11 10 10 10 12 15 15 17 17 14 11 13 16 18 17 22 24 23 25 28 27 26 24 29 30
6 7 11 11 9 8 8 10 10 9 9 10 12 11 10 11 11 12 13 15 15 19 22 23 22 21 22 20 21 22 24 28 29 25 25 24 24 27
8 10 10 9 11 13 12 11 11 13 15 14 15 16 16 16 16 13 14 15 17 18 19 21 24 28 30 28 20 22 21 17 16 15 21 25 27 25
9 10 11 12 9 11 10 10 7 10 9 7 8 11 11 11 12 14 14 15 18 19 23 25 25 22 25 27 33 26 30 28 27 27 26 26 31 31
8 8 8 8 8 8 8 8 12 9 14 12 10 12 13 14 15 15 17 20 23 24 25 22 19 20 23 25 34 42 36 36 32 31 30 27 27 28
8 7 8 9 9 10 9 8 10 10 13 15 13 14 14 15 16 17 18 20 22 21 24 23 23 28 34 39 43 48 48 36 29 30 29 28 31 32
9 8 9 9 8 9 11 12 11 11 12 13 14 17 19 21 22 22 22 24 26 26 25 28 29 31 33 32 37 39 42 43 37 32 36 33 32 37
11 11 11 9 9 10 12 13 11 13 13 15 15 17 20 24 24 26 27 27 29 32 29 31 35 36 37 37 39 40 38 42 42 40 33 26 32 29
Wind_Direction
279 276 275 266 257 256 267 271 267 270 285 287 277 289 305 303 245 348 244 265 266 262 264 261 252 248 248 242 239 243 246 244 241 241 240 237 239 237
292 283 276 276 273 262 260 266 268 263 265 273 277 292 305 298 281 266 252 264 272 262 256 252 255 257 253 246 241 245 246 238 238 238 241 239 238 238
290 292 291 282 276 265 262 263 263 262 265 281 274 270 278 282 284 285 271 274 273 271 265 254 252 255 249 250 245 244 243 237 237 237 238 240 240 240
287 288 297 297 290 282 272 265 263 264 267 269 274 268 260 270 274 273 268 270 274 262 267 263 250 253 256 254 250 251 247 242 240 239 242 243 242 241
272 267 277 292 295 290 285 277 272 267 265 266 272 273 274 273 271 264 271 271 278 271 267 271 270 257 257 256 252 247 244 243 243 242 242 243 243 244
283 283 265 269 282 302 291 290 282 276 270 267 272 276 275 282 272 263 264 266 274 279 272 275 275 276 265 261 256 254 244 237 241 244 244 241 241 243
301 291 280 270 280 286 297 301 292 280 275 274 277 278 280 279 276 275 264 266 268 267 268 293 230 255 262 271 272 254 251 249 244 243 245 245 243 242
335 328 304 272 316 287 294 277 281 284 278 277 277 279 280 284 282 273 270 267 273 276 278 259 261 255 260 275 273 258 259 258 253 250 250 248 247 244
336 326 319 305 277 286 284 292 290 283 277 279 274 273 281 280 280 274 271 273 274 277 277 270 265 268 273 288 234 253 247 256 263 258 253 250 249 249
332 323 310 312 299 292 297 289 293 296 304 288 277 277 282 285 281 279 277 278 277 280 283 274 275 267 279 276 277 263 253 264 267 261 262 262 249 250
335 340 320 310 295 292 304 302 297 294 280 286 288 275 296 300 296 289 289 290 294 296 303 284 289 288 273 258 250 273 273 264 270 261 260 269 270 263
358 335 330 325 317 312 314 311 307 306 307 305 293 305 311 306 300 286 296 276 272 288 271 286 279 305 302 283 267 262 267 271 272 259 260 261 273 265
342 325 317 326 327 324 319 322 323 320 319 317 321 320 33 19 314 287 274 288 299 301 311 307 306 296 290 295 281 262 265 265 275 266 266 271 268 268
324 315 315 315 312 315 305 311 329 329 328 321 290 295 300 301 316 313 316 320 320 306 299 299 301 302 302 297 294 292 284 281 275 270 271 269 269 268
315 328 333 324 325 320 314 316 314 298 299 295 290 293 298 301 302 311 300 293 289 300 314 325 317 312 298 293 296 297 299 294 292 287 277 267 271 270
341 329 343 329 324 314 312 312 324 331 343 327 326 319 323 317 319 309 306 301 297 289 279 307 306 312 306 303 303 297 297 297 302 295 291 285 273 267
350 3 336 335 334 337 344 353 354 343 330 327 330 324 316 314 303 303 307 308 312 309 302 290 281 281 285 291 297 300 303 299 302 297 298 289 289 276
19 354 340 348 359 355 8 7 5 350 4 16 356 359 360 1 352 348 338 332 325 324 326 323 313 299 289 276 272 296 289 298 295 297 283 292 288 286
24 346 359 4 5 4 8 1 357 358 334 339 6 354 342 338 343 345 330 332 330 325 311 309 316 319 312 302 289 272 291 285 291 286 296 302 290 284
5 338 346 348 340 333 339 344 338 350 344 349 359 334 331 336 339 333 334 330 327 323 324 325 322 308 313 318 308 293 287 290 298 296 293 295 287 284
321 324 328 327 324 321 325 333 332 342 347 345 342 336 332 327 324 327 325 322 311 315 322 318 304 293 295 293 293 290 286 278 259 277 279 284 279 283
304 309 307 302 309 327 329 333 338 339 329 328 325 324 325 323 322 315 312 313 312 321 316 302 313 321 317 312 305 306 303 298 289 275 255 262 275 283
298 307 308 330 333 322 318 319 327 322 322 320 312 307 309 316 317 318 315 310 311 318 317 320 323 322 316 306 301 302 298 296 301 301 283 252 244 250